Home > Weather > Zwickau > Past weeks

Flag for Germany Past Weather in Zwickau, Saxony, Germany — Yesterday and Last 2 Weeks

Now
57 °F

Clear.


Feels Like: 57 °F
Forecast: 58 / 89 °F
Wind: 3 mph from Southeast

Location: Karlovy Vary Airport

Current Time: Aug 26, 2016 at 12:16:34 AM

Latest Report: Aug 26, 2016 at 12:00 AM


Visibility: 10 mi

Pressure: 30.18 "Hg

Humidity: 82%

Dew Point: 52 °F

Location of ZwickauLocation

Past Weather in Zwickau — Graph

°F

Zwickau Temperature Yesterday

Maximum temperature yesterday: 79 °F (at 3:00 PM)
Minimum temperature yesterday: 52 °F (at 6:00 AM)
Average temperature yesterday: 69 °F

High & Low Weather Summary for the Past Weeks

 TemperatureHumidityPressure
High79 °F (Aug 20, 2:30 PM)100% (Aug 11, 1:00 AM)30.39 "Hg (Aug 11, 1:00 AM)
Low37 °F (Aug 11, 5:00 AM)31% (Aug 19, 11:30 AM)29.83 "Hg (Aug 18, 3:00 PM)
Average62 °F69%30.15 "Hg
* Reported Aug 10 11:00 PM — Aug 25 11:00 PM, Zwickau, Weather by CustomWeather, © 2016

Note: Actual official high and low records may vary slightly from our data, if they occured in-between our weather recording intervals... More about our weather records

Advertising

Zwickau Weather History for the Previous 24 Hours

Scroll right to see more
 ConditionsComfort  
Time TempWeatherWind HumidityBarometerVisibility
11:00 PM
Thu, Aug 25
61 °FClear.5 mph77%30.18 "Hg10 mi
10:00 PM63 °FClear.7 mph73%30.18 "Hg10 mi
9:00 PM68 °FSunny.6 mph60%30.18 "Hg10 mi
8:30 PM68 °FSunny.6 mph60%30.18 "Hg10 mi
8:00 PM72 °FSunny.7 mph53%30.15 "Hg10 mi
7:30 PM75 °FSunny.9 mph44%30.15 "Hg10 mi
7:00 PM77 °FSunny.9 mph42%30.15 "Hg10 mi
6:30 PM77 °FSunny.10 mph44%30.15 "Hg10 mi
6:00 PM79 °FSunny.13 mph42%30.18 "Hg10 mi
5:30 PM79 °FPassing clouds.12 mph42%30.18 "HgN/A
5:00 PM79 °FSunny.12 mph42%30.18 "Hg10 mi
4:30 PM79 °FSunny.12 mph42%30.18 "Hg10 mi
4:00 PM79 °FSunny.13 mph45%30.21 "Hg10 mi
3:30 PM79 °FPassing clouds.12 mph45%30.21 "HgN/A
3:00 PM79 °FSunny.12 mph45%30.21 "Hg10 mi
2:30 PM77 °FSunny.12 mph51%30.21 "Hg10 mi
2:00 PM77 °FSunny.12 mph51%30.21 "Hg10 mi
1:30 PM75 °FPassing clouds.12 mph54%30.21 "HgN/A
1:00 PM75 °FPassing clouds.10 mph47%30.21 "HgN/A
12:30 PM75 °FPassing clouds.9 mph54%30.24 "HgN/A
12:00 PM73 °FPassing clouds.13 mph50%30.24 "HgN/A
11:30 AM72 °FPassing clouds.12 mph57%30.24 "HgN/A
11:00 AM72 °FSunny.9 mph57%30.24 "Hg10 mi
10:30 AM70 °FPassing clouds.9 mph60%30.24 "HgN/A
10:00 AM68 °FSunny.7 mph64%30.24 "Hg10 mi
9:30 AM66 °FSunny.8 mph68%30.24 "Hg10 mi
9:00 AM66 °FPassing clouds.8 mph68%30.24 "HgN/A
8:30 AM64 °FSunny.7 mph73%30.24 "Hg10 mi
8:00 AM63 °FSunny.6 mph77%30.24 "Hg10 mi
7:30 AM57 °FSunny.5 mph88%30.24 "Hg10 mi
7:00 AM54 °FFog.2 mph94%30.24 "HgN/A
6:00 AM52 °FFog.2 mph100%30.24 "HgN/A
5:00 AM54 °FClear.3 mph94%30.27 "Hg10 mi
4:00 AM54 °FClear.2 mph94%30.27 "Hg10 mi
3:00 AM55 °FClear.3 mph88%30.27 "Hg10 mi
2:00 AM57 °FClear.2 mph82%30.27 "Hg10 mi
1:00 AM59 °FClear.3 mph77%30.27 "Hg10 mi
12:00 AM61 °FClear.3 mph72%30.27 "Hg10 mi
Weather by CustomWeather, © 2016

See weather overviewHow to use our weather pages